Location: The Stocker AstroScience Center
(25.7579°N, 80.3725°W)
Time: 11:50:52

ISS - Pass Details

Date: 01 March 2018
Orbit: 403 x 406 km, 51.6° (Epoch: 21 March)

Event Time Altitude Azimuth Distance (km) Brightness Sun altitude
Rises 13:35:03 0° 308° (NW) 2,312 -0.1 53.7°
Reaches altitude 10° 13:37:15 10° 298° (WNW) 1,451 -0.9 53.4°
Maximum altitude 13:40:13 33° 232° (SW) 693 -1.3 53.1°
Drops below altitude 10° 13:43:10 10° 166° (SSE) 1,444 -0.5 52.8°
Sets 13:45:21 0° 156° (SSE) 2,300 0.3 52.6°
